Location: Banios
(43.0451°N, 0.2335°E)
Time: 12:41:12
(UTC+00:00)

Envisat - Pass Details

Date: 08 December 2021
Orbit: 764 x 766 km, 98.2° (Epoch: 28 January)

Event Time Altitude Azimuth Distance (km) Brightness Sun altitude
Rises 04:43:23 0° 16° (NNE) 3,243 6.4 -27.4°
Reaches altitude 10° 04:45:45 10° 21° (NNE) 2,312 5.6 -26.9°
Maximum altitude 04:50:46 59° 101° (E) 884 3.5 -26.0°
Drops below altitude 10° 04:55:45 10° 180° (S) 2,294 5.5 -25.1°
Sets 04:58:05 0° 184° (S) 3,215 6.3 -24.7°
